Regional Weather Roundup
Issued by NWS

Home | Current Version | Previous Version | Graphics & Text | Print | Product List | Glossary On
Versions: 1 2 3 4 5 6 7 8 9 10 11 12 13 14 15 16 17 18 19 20 21 22 23 24 25 26 27 28 29 30 31 32 33 34 35 36 37 38 39 40 41 42 43 44 45 46 47 48 49 50
043
ASUS44 KJAN 180610
RWRMS

MISSISSIPPI HOURLY WEATHER ROUNDUP
NATIONAL WEATHER SERVICE JACKSON MS
100 AM CDT THU SEP 18 2014

NOTE: "FAIR: INDICATES FEW OR NO CLOUDS BELOW 12,000 FEET WITH NO
SIGNIFICANT WEATHER AND/OR OBSTRUCTIONS TO VISIBILITY.

MSZ001>002-007>008-010>013-018>021-025>028-034>036-180700-
NORTHWEST MISSISSIPPI

CITY           SKY/WX    TMP DP  RH WIND       PRES   REMARKS
CLARKSDALE     FAIR      70  70 100 CALM      29.93S
CLEVELAND      FAIR      75  70  85 E6        29.91S
GREENWOOD      PTCLDY    74  67  78 E7        29.91F
6HR MIN TEMP:  72; 6HR MAX TEMP:  80;

GREENVILLE     CLOUDY    75  68  78 SE5       29.91S
6HR MIN TEMP:  74; 6HR MAX TEMP:  85;

GRENADA        FAIR      70  66  88 CALM      29.94S
OLIVE BRANCH   CLEAR     64  64 100 CALM      29.95S
OXFORD         FAIR      68  64  88 SE6       29.96F
TUNICA         CLOUDY    68  64  88 CALM      29.94S
$$

MSZ003>006-009-014>017-022>024-029>033-037>039-180700-
NORTHEAST MISSISSIPPI

CITY           SKY/WX    TMP DP  RH WIND       PRES   REMARKS
COLUMBUS AFB   PTCLDY    65  65  97 SE1       29.94F
6HR MIN TEMP:  65; 6HR MAX TEMP:  76;

CORINTH        FAIR      63  61  94 NW3       29.96S
GOLDN TRIANGLE CLEAR     68  63  83 CALM      29.94F
STARKVILLE     FAIR      64  63  94 CALM      29.94F
TUPELO         MOCLDY    69  65  86 NE3       29.95S
6HR MIN TEMP:  69; 6HR MAX TEMP:  77;

$$

MSZ040-058-180700-
CENTRAL MISSISSIPPI

CITY           SKY/WX    TMP DP  RH WIND       PRES   REMARKS
JACKSON INTL   CLOUDY    73  69  87 CALM      29.92S
6HR MIN TEMP:  72; 6HR MAX TEMP:  82;

JACKSON HAWKNS CLOUDY    76  70  82 CALM      29.93R
6HR MIN TEMP:  74; 6HR MAX TEMP:  85;

MERIDIAN KEY   PTCLDY    69  66  90 CALM      29.94F
6HR MIN TEMP:  69; 6HR MAX TEMP:  84;

MERIDIAN NAS   CLEAR     71  66  84 E5        29.94F
6HR MIN TEMP:  70; 6HR MAX TEMP:  83;

RAYMOND        FAIR      72  66  83 CALM      29.92S
VICKSBURG      CLOUDY    72  70  93 CALM      29.91S
6HR MIN TEMP:  72; 6HR MAX TEMP:  78;

$$

MSZ059>079-180700-
SOUTH MISSISSIPPI

CITY           SKY/WX    TMP DP  RH WIND       PRES   REMARKS
BROOKHAVEN     FAIR      73  72  94 CALM      29.94F
COLUMBIA       FAIR      72  70  94 CALM      29.91S
HATTIESBURG    CLOUDY    75  72  90 CALM      29.92F FOG
6HR MIN TEMP:  74; 6HR MAX TEMP:  84;

MCCOMB         MOCLDY    75  72  90 CALM      29.93S
6HR MIN TEMP:  74; 6HR MAX TEMP:  82;

NATCHEZ        PTCLDY    73  70  88 CALM      29.92F
6HR MIN TEMP:  73; 6HR MAX TEMP:  81;

PINE BELT      CLOUDY    72  68  88 CALM      29.93F
$$

MSZ080>082-180700-
COASTAL MISSISSIPPI

CITY           SKY/WX    TMP DP  RH WIND       PRES   REMARKS
BILOXI         PTCLDY    78  72  81 CALM      29.91S
6HR MIN TEMP:  78; 6HR MAX TEMP:  82;

PASCAGOULA     PTCLDY    73  72  96 NE3       29.91F
6HR MIN TEMP:  72; 6HR MAX TEMP:  80;

GULFPORT       PTCLDY    76  72  87 CALM      29.90F
6HR MIN TEMP:  75; 6HR MAX TEMP:  83;

$$



USA.gov is the U.S. government's official web portal to all federal, state and local government web resources and services.